Back to catalog

STARLINK-31769

AliveCommunicationsVLEO
NORAD 59617·PAYLOAD·🇺🇸 United States

Launched Apr 28, 2024 from Cape Canaveral Space Force Station

Loading…

Next Passes (next 24 hours)

TLE

FreshSource: CelesTrak SupGP

Epoch: Sep 15, 2026, 02:23 UTC

1 59617C 24080S   26258.09979167 -.00020771  00000+0 -75214-3 0  2581
2 59617  43.0045  48.5538 0002024 269.0674 196.0927 15.27595850    13

Track STARLINK-31769 in real time with AllMySat

Download on the App Store